Location: Unspecified
(51.0000°N, 12.0000°E)
Time: 12:24:57
(UTC+01:00)

ISS - Pass Details

Date: 13 November 2017
Orbit: 401 x 407 km, 51.6° (Epoch: 25 November)

Event Time Altitude Azimuth Distance (km) Brightness Sun altitude
Exits shadow 06:35:36 10° 270° (W) 1,487 -1.6 -7.9°
Reaches altitude 10° 06:35:41 10° 269° (W) 1,456 -1.6 -7.9°
Maximum altitude 06:38:20 23° 215° (SW) 911 -2.2 -7.5°
Drops below altitude 10° 06:40:58 10° 160° (SSE) 1,450 -0.4 -7.1°
Sets 06:43:17 0° 145° (SE) 2,305 1.0 -6.8°
